Sacramento, CA

7:31 PM PST on February 21, 2018 (GMT -0800)
Sacramento Executive

Weather History for KSAC - March, 2013

Change the Weather History Date:

Thursday, March 28, 2013

  Actual Average Record
Temperature  
Mean Temperature 61 °F -  
Max Temperature 70 °F 67 °F 84 °F (2015)
Min Temperature 51 °F 45 °F 34 °F (1985)
Degree Days  
Heating Degree Days 4    
Cooling Degree Days 0    
Growing Degree Days 12 (Base 50)    
Moisture  
Dew Point 49 °F    
Average Humidity 68    
Maximum Humidity 89    
Minimum Humidity 47    
Precipitation  
Precipitation T in 0.07 in 1.05 in (1963)
Month to date precipitation 0.66 2.56  
Year to date precipitation 1.98 9.67  
Since 1 July precipitation 13.27  
Sea Level Pressure  
Sea Level Pressure 30.06 in    
Wind  
Wind Speed 4 mph (West)    
Max Wind Speed 8 mph    
Max Gust Speed 13 mph    
Visibility 10 miles    
Events      
T = Trace of Precipitation, MM = Missing Value Source: NWS Daily Summary

Daily Weather History Graph

Daily Weather History Graph

Search for Another Location

Airport or City:

Trip Planner

Search our weather history database for the weather conditions in past years. The results will help you decide how hot, cold, wet, or windy it might be!

Date:

Astronomy

Mar. 28, 2013 Rise Set
Actual Time 6:56 AM PDT 7:25 PM PDT
Civil Twilight 6:29 AM PDT 7:52 PM PDT
Nautical Twilight 5:58 AM PDT 8:23 PM PDT
Astronomical Twilight 5:26 AM PDT 8:55 PM PDT
Moon 9:21 PM PDT (3/28) 7:29 AM PDT (3/28)
Length of Visible Light 13h 22m
Length of Day
12h 29m
Full, 98% of the Moon is Illuminated
Mar 28
Full
Apr 2
Last Quarter
Apr 10
New
Apr 18
First Quarter
Apr 25
Full

Hourly Weather History & Observations

Time (PDT) Temp. Dew Point Humidity Pressure Visibility Wind Dir Wind Speed Gust Speed Precip Events Conditions
12:53 AM 54.0 °F 48.9 °F 83% 30.02 in 10.0 mi South 4.6 mph - N/A   Overcast
1:53 AM 54.0 °F 48.9 °F 83% 30.03 in 10.0 mi SSW 4.6 mph - N/A   Overcast
2:53 AM 54.0 °F 50.0 °F 86% 30.02 in 10.0 mi Calm Calm - N/A   Overcast
3:53 AM 54.0 °F 48.9 °F 83% 30.02 in 10.0 mi Calm Calm - N/A   Overcast
4:53 AM 54.0 °F 48.9 °F 83% 30.03 in 10.0 mi South 3.5 mph - N/A   Overcast
5:53 AM 53.1 °F 48.9 °F 86% 30.03 in 10.0 mi SE 3.5 mph - N/A   Mostly Cloudy
6:53 AM 53.1 °F 48.9 °F 86% 30.04 in 10.0 mi Calm Calm - N/A   Mostly Cloudy
7:53 AM 55.0 °F 50.0 °F 83% 30.05 in 9.0 mi Calm Calm - N/A   Mostly Cloudy
8:53 AM 57.0 °F 50.0 °F 77% 30.08 in 10.0 mi SSW 6.9 mph - N/A   Overcast
9:53 AM 59.0 °F 51.1 °F 75% 30.09 in 10.0 mi SW 5.8 mph - N/A   Overcast
10:53 AM 61.0 °F 51.1 °F 70% 30.09 in 10.0 mi SSW 4.6 mph - N/A   Mostly Cloudy
11:53 AM 62.1 °F 50.0 °F 65% 30.09 in 10.0 mi SW 3.5 mph - N/A   Mostly Cloudy
12:00 PM 62.6 °F 50.0 °F 63% 30.09 in 10.0 mi Calm Calm - N/A   Mostly Cloudy
12:53 PM 64.0 °F 48.9 °F 58% 30.08 in 10.0 mi Calm Calm - N/A   Mostly Cloudy
1:53 PM 64.9 °F 48.9 °F 56% 30.08 in 10.0 mi SW 5.8 mph - N/A   Overcast
2:53 PM 66.9 °F 50.0 °F 54% 30.06 in 10.0 mi Calm Calm - 0.00 in   Mostly Cloudy
3:53 PM 68.0 °F 48.0 °F 49% 30.05 in 10.0 mi West 3.5 mph - 0.00 in   Partly Cloudy
4:53 PM 70.0 °F 48.0 °F 46% 30.04 in 10.0 mi WNW 5.8 mph - N/A   Partly Cloudy
5:53 PM 68.0 °F 46.9 °F 47% 30.04 in 10.0 mi NW 4.6 mph - N/A   Partly Cloudy
6:53 PM 66.0 °F 48.9 °F 54% 30.04 in 10.0 mi North 10.4 mph - N/A   Clear
7:53 PM 63.0 °F 50.0 °F 63% 30.06 in 10.0 mi NNW 9.2 mph - N/A   Clear
8:53 PM 61.0 °F 50.0 °F 67% 30.07 in 10.0 mi North 5.8 mph - N/A   Clear
9:53 PM 59.0 °F 50.0 °F 72% 30.09 in 10.0 mi North 6.9 mph - N/A   Clear
10:53 PM 57.0 °F 48.9 °F 74% 30.09 in 10.0 mi North 5.8 mph - N/A   Clear
11:53 PM 55.9 °F 48.9 °F 77% 30.09 in 10.0 mi North 4.6 mph - N/A   Clear